[[{"header":{"parameterUnit":"m.s-1","parameterCategory":1,"la1":30.2991,"la2":30.254,"lo1":-89.0895,"lo2":-89.0444,"dy":0.0017,"dx":0.0017,"nx":28,"ny":28,"refTime":"2025-03-17T09:00:00:Z","depth":0,"parameterNumber":2,"parameterNumberName":"U-component_of_WINDS"},"data":[0,0,0,0,0,0,0,0,0,0,0,0,0,0,0,0,0,0,0,0,0,0,0,0,0,0,0,0,0,0,0,0,0,0,0,0,0,0,0,0,0,0,0,0,0,0,0,0,0,0,0,0,0,0,0,0,0,0,-2.6886,-2.6887,0,-2.7005,-2.7006,-2.7007,-2.7028,-2.7027,-2.7026,-2.7025,-2.7146,-2.715,-2.7155,0,0,0,0,0,0,0,0,0,0,0,0,0,-2.6678,-2.6682,-2.6886,-2.6888,-2.6889,-2.7005,-2.7006,-2.7008,-2.7028,-2.7027,-2.7025,-2.7024,-2.7145,-2.715,-2.7155,0,0,0,0,0,0,0,0,0,0,0,0,0,-2.678,-2.6683,-2.6886,-2.6913,-2.6917,-2.7004,-2.7006,-2.7008,-2.7028,-2.7027,-2.7025,-2.7024,-2.7143,-2.7149,-2.7156,-2.7224,0,0,-2.7175,-2.7177,0,0,0,0,0,0,0,0,-2.6774,-2.6788,-2.6907,-2.6911,-2.6915,-2.7,-2.6978,-2.7081,-2.7028,-2.6986,-2.7025,-2.7023,-2.7099,-2.7109,-2.7134,-2.723,-2.7235,-2.7175,-2.7179,-2.7182,-2.7184,0,0,0,0,0,0,0,-2.6767,-2.6783,-2.6933,-2.6909,-2.6914,-2.692,-2.6932,-2.6997,-2.7049,-2.6989,-2.6991,-2.7005,-2.7101,-2.7128,-2.7137,-2.7237,-2.7175,-2.7181,-2.7185,-2.7187,-2.7398,-2.74,0,0,0,0,0,0,-2.6755,-2.6777,-2.6929,-2.6937,-2.684,-2.6925,-2.6939,-2.6974,-2.7049,-2.7059,-2.7006,-2.7005,-2.7118,-2.713,-2.7142,-2.7228,-2.7182,-2.7188,-2.7191,-2.7396,-2.7398,-2.74,0,0,0,0,0,0,-2.6751,-2.6768,-2.6924,-2.6857,-2.6877,-2.693,-2.6969,-2.6977,-2.7005,-2.7061,-2.7071,-2.7024,-2.7117,-2.7133,-2.7204,-2.7232,-2.719,-2.7196,-2.7394,-2.7397,-2.7399,-2.7401,0,0,0,0,0,0,-2.6744,-2.6767,-2.6793,-2.6858,-2.6881,-2.6984,-2.6971,-2.6981,-2.7016,-2.7016,-2.7081,-2.709,-2.7117,-2.7195,-2.721,-2.724,-2.7201,-2.7391,-2.7395,-2.7398,-2.7398,-2.7403,-2.7407,0,0,0,0,0,-2.6737,-2.6788,-2.6794,-2.6812,-2.6915,-2.6986,-2.6999,-2.7029,-2.7018,-2.7045,-2.7082,-2.7088,-2.7227,-2.7202,-2.722,-2.7252,-2.739,-2.7394,-2.7398,-2.7396,-2.7402,-2.7407,0,0,0,0,0,0,-2.6725,-2.6797,-2.6804,-2.6878,-2.6926,-2.6989,-2.7024,-2.7035,-2.7086,-2.7084,-2.712,-2.7135,-2.7204,-2.7236,-2.7206,-2.7324,-2.7308,-2.7316,-2.73,-2.7306,-2.7311,-2.7301,-2.7206,0,0,0,0,0,-2.6731,-2.6782,-2.6843,-2.6902,-2.6926,-2.6971,-2.7003,-2.7022,-2.7073,-2.7093,-2.7135,-2.7185,-2.724,-2.7275,-2.7329,-2.7404,-2.7419,-2.7435,-2.7439,-2.7443,-2.7449,-2.7492,-2.7501,-2.7414,-2.7414,-2.7414,0,0,-2.6743,-2.6789,-2.6819,-2.6901,-2.694,-2.6993,-2.6988,-2.7044,-2.7084,-2.7102,-2.7172,-2.7205,-2.7262,-2.7336,-2.7371,-2.7364,-2.7477,-2.7448,-2.745,-2.7455,-2.7497,-2.7506,-2.7513,-2.7417,-2.7416,-2.7416,0,0,-2.6793,-2.6833,-2.6887,-2.6927,-2.6987,-2.7017,-2.703,-2.7093,-2.7116,-2.7187,-2.7202,-2.7251,-2.7344,-2.7385,-2.7418,-2.7487,-2.7495,-2.7503,-2.7526,-2.7568,-2.7575,-2.7581,-2.7606,-2.7614,-2.7509,-2.7509,-2.7509,0,-2.6801,-2.6882,-2.6914,-2.697,-2.7006,-2.7026,-2.7081,-2.7119,-2.7193,-2.7218,-2.7209,-2.7329,-2.7369,-2.7453,-2.747,-2.7496,-2.7513,-2.7495,-2.7571,-2.7578,-2.7584,-2.7608,-2.7618,-2.751,-2.751,-2.751,-2.751,0,-2.6889,-2.6945,-2.6981,-2.7053,-2.7093,-2.7149,-2.719,-2.7227,-2.7244,-2.7275,-2.7348,-2.7398,-2.7462,-2.7484,-2.75,-2.7571,-2.7566,-2.7564,-2.7549,-2.7592,-2.7616,-2.7625,-2.7511,-2.751,-2.751,-2.751,0,0,-2.6932,-2.7023,-2.7036,-2.7069,-2.7138,-2.7182,-2.724,-2.7303,-2.7335,-2.7386,-2.7435,-2.7515,-2.7515,-2.7553,-2.7574,-2.7611,-2.7663,-2.7605,-2.7607,-2.7614,-2.7746,-2.7746,-2.7756,-2.767,-2.7672,-2.7673,-2.7741,0,-2.699,-2.7093,-2.7125,-2.721,-2.7263,-2.7284,-2.7334,-2.7382,-2.7414,-2.7464,-2.7499,-2.7555,-2.755,-2.7573,-2.7611,-2.7649,-2.769,-2.7644,-2.7717,-2.7719,-2.7701,-2.7768,-2.7768,-2.7829,-2.775,-2.7752,-2.7753,0,-2.7071,-2.7125,-2.7216,-2.728,-2.7303,-2.7347,-2.7409,-2.7456,-2.7512,-2.7533,-2.7576,-2.7595,-2.7657,-2.7639,-2.7725,-2.7693,-2.7725,-2.7749,-2.7752,-2.7759,-2.7738,-2.7777,-2.785,-2.7859,-2.7767,-2.7766,-2.7765,0,-2.7094,-2.7189,-2.7256,-2.7284,-2.736,-2.7391,-2.7424,-2.7479,-2.7516,-2.757,-2.7595,-2.7655,-2.7689,-2.7736,-2.7771,-2.7755,-2.7855,-2.784,-2.7874,-2.7873,-2.7893,-2.7891,-2.7971,-2.7914,-2.7914,-2.7914,-2.7914,0,-2.7155,-2.721,-2.7268,-2.7309,-2.7372,-2.7409,-2.747,-2.7504,-2.7553,-2.7602,-2.7624,-2.767,-2.7714,-2.7766,-2.7795,-2.7863,-2.7877,-2.7896,-2.7903,-2.7894,-2.7891,-2.7914,-2.7911,-2.7916,-2.7916,-2.7915,-2.7915,0,-2.7191,-2.7231,-2.7306,-2.7373,-2.7391,-2.7434,-2.7491,-2.7533,-2.7566,-2.7628,-2.7645,-2.7697,-2.7759,-2.78,-2.788,-2.7899,-2.7973,-2.7979,-2.7954,-2.7957,-2.7989,-2.7985,-2.8086,-2.8102,-2.8034,-2.8035,-2.8036,0,-2.7227,-2.727,-2.7341,-2.7376,-2.7409,-2.7465,-2.7503,-2.7541,-2.758,-2.7648,-2.7682,-2.7746,-2.7799,-2.7898,-2.7944,-2.8005,-2.8013,-2.8044,-2.8022,-2.8012,-2.8013,-2.801,-2.8015,-2.8047,-2.8047,-2.8048,-2.8048,0,-2.7286,-2.7305,-2.7359,-2.7421,-2.7465,-2.7516,-2.7566,-2.7593,-2.7641,-2.7684,-2.7748,-2.779,-2.7872,-2.7935,-2.8002,-2.8037,-2.8051,-2.8055,-2.8067,-2.8057,-2.8041,-2.8051,-2.7963,-2.8052,-2.8052,-2.8052,-2.8051,-2.8051,-2.7323,-2.7363,-2.742,-2.748,-2.7522,-2.757,-2.7612,-2.7651,-2.7706,-2.7775,-2.7795,-2.7863,-2.792,-2.801,-2.8047,-2.81,-2.8097,-2.8113,-2.8117,-2.812,-2.8121,-2.8033,-2.8113,-2.8113,-2.8113,-2.8113,-2.8113,0,-2.7384,-2.7423,-2.7477,-2.7548,-2.7595,-2.7605,-2.7662,-2.7701,-2.776,-2.7812,-2.7865,-2.794,-2.8002,-2.8053,-2.8118,-2.8152,-2.816,-2.8167,-2.8165,-2.8173,-2.812,-2.8104,-2.8159,-2.8159,-2.8159,-2.8159,-2.8159,-2.8159,-2.7422,-2.749,-2.7515,-2.7605,-2.7644,-2.771,-2.7742,-2.7786,-2.7827,-2.791,-2.7962,-2.7995,-2.8048,-2.8117,-2.8175,-2.8189,-2.8211,-2.8217,-2.8232,-2.8182,-2.8176,-2.8171,-2.8156,-2.8222,-2.8222,-2.8281,-2.8281,-2.8282]},{"header":{"parameterUnit":"m.s-1","parameterCategory":1,"la1":30.2991,"la2":30.254,"lo1":-89.0895,"lo2":-89.0444,"dy":0.0017,"dx":0.0017,"nx":28,"ny":28,"refTime":"2025-03-17T09:00:00:Z","depth":0,"parameterNumber":3,"parameterNumberName":"V-component_of_WINDS"},"data":[0,0,0,0,0,0,0,0,0,0,0,0,0,0,0,0,0,0,0,0,0,0,0,0,0,0,0,0,0,0,0,0,0,0,0,0,0,0,0,0,0,0,0,0,0,0,0,0,0,0,0,0,0,0,0,0,0,0,2.1814,2.1814,0,2.1797,2.1797,2.1797,2.178,2.178,2.178,2.178,2.1758,2.1758,2.1758,0,0,0,0,0,0,0,0,0,0,0,0,0,2.1831,2.1831,2.1814,2.1814,2.1814,2.1797,2.1797,2.1797,2.178,2.178,2.178,2.178,2.1759,2.1758,2.1758,0,0,0,0,0,0,0,0,0,0,0,0,0,2.182,2.1831,2.1814,2.1804,2.1803,2.1797,2.1797,2.1797,2.178,2.178,2.178,2.1779,2.1759,2.1758,2.1758,2.176,0,0,2.1756,2.1756,0,0,0,0,0,0,0,0,2.1821,2.1819,2.1806,2.1805,2.1803,2.1791,2.1795,2.1784,2.178,2.1789,2.178,2.1779,2.1769,2.1768,2.1765,2.1759,2.1758,2.1756,2.1755,2.1755,2.1755,0,0,0,0,0,0,0,2.1821,2.182,2.1807,2.1806,2.1804,2.1799,2.1797,2.1793,2.1781,2.1788,2.1787,2.1785,2.1768,2.1766,2.1764,2.1758,2.1756,2.1755,2.1755,2.1755,2.1754,2.1754,0,0,0,0,0,0,2.1824,2.1821,2.1808,2.1807,2.1812,2.1799,2.1797,2.1795,2.1781,2.1778,2.1785,2.1784,2.1767,2.1765,2.1764,2.1766,2.1755,2.1755,2.1754,2.1753,2.1754,2.1754,0,0,0,0,0,0,2.1825,2.1823,2.1809,2.1814,2.1811,2.1799,2.1797,2.1795,2.1792,2.1779,2.1776,2.1785,2.1766,2.1764,2.1761,2.1765,2.1754,2.1754,2.1753,2.1754,2.1754,2.177,0,0,0,0,0,0,2.1825,2.1824,2.1825,2.1814,2.1811,2.1808,2.1797,2.1795,2.1791,2.179,2.1778,2.1775,2.1766,2.1762,2.1761,2.1764,2.1753,2.1753,2.1753,2.1754,2.1769,2.1771,2.1773,0,0,0,0,0,2.1826,2.1829,2.1825,2.1823,2.1813,2.1808,2.1806,2.1796,2.1792,2.1793,2.1784,2.1776,2.1765,2.1762,2.176,2.1763,2.1752,2.1753,2.1754,2.1768,2.1771,2.1773,0,0,0,0,0,0,2.1839,2.1827,2.1822,2.1822,2.1816,2.1805,2.1806,2.1799,2.1793,2.1792,2.1779,2.1777,2.1775,2.1769,2.1766,2.1765,2.1758,2.1758,2.1769,2.1771,2.1773,2.1774,2.1753,0,0,0,0,0,2.1842,2.184,2.183,2.183,2.1828,2.1817,2.1815,2.1808,2.1801,2.1798,2.179,2.1782,2.1777,2.1774,2.1769,2.1769,2.1766,2.177,2.1772,2.1773,2.1773,2.1774,2.1775,2.1757,2.1757,2.1757,0,0,2.1848,2.1841,2.184,2.1833,2.1827,2.1825,2.1815,2.1813,2.1811,2.1797,2.1794,2.1788,2.1779,2.1778,2.1777,2.1773,2.1778,2.1774,2.1776,2.1775,2.1774,2.1776,2.1778,2.1757,2.1757,2.1757,0,0,2.1857,2.1852,2.1852,2.1848,2.184,2.1834,2.1834,2.1824,2.182,2.1818,2.1808,2.1805,2.1797,2.1791,2.1787,2.1796,2.1788,2.1795,2.1804,2.1804,2.1805,2.1807,2.181,2.1811,2.1795,2.1795,2.1795,0,2.1864,2.1861,2.1853,2.1852,2.1849,2.1839,2.1839,2.1834,2.1825,2.1823,2.1819,2.181,2.1803,2.18,2.1803,2.18,2.18,2.1796,2.1806,2.1807,2.1808,2.1811,2.1813,2.1796,2.1796,2.1796,2.1796,0,2.1871,2.1869,2.1871,2.1864,2.1861,2.186,2.1852,2.185,2.1844,2.1838,2.1836,2.1828,2.1821,2.182,2.1813,2.1817,2.1815,2.1809,2.18,2.1811,2.1814,2.1815,2.1798,2.1797,2.1797,2.1797,0,0,2.1886,2.1877,2.1877,2.1874,2.1866,2.1864,2.1864,2.1859,2.1857,2.1852,2.1851,2.1845,2.184,2.1836,2.1829,2.1829,2.1838,2.1823,2.1822,2.1826,2.1841,2.1846,2.1847,2.1833,2.1833,2.1833,2.1842,0,2.1894,2.1893,2.1886,2.1887,2.1885,2.1876,2.1876,2.1871,2.1865,2.1863,2.1856,2.1853,2.1846,2.1843,2.1844,2.1836,2.184,2.1836,2.1831,2.1831,2.1833,2.1848,2.1852,2.1861,2.1843,2.1843,2.1843,0,2.1902,2.1899,2.19,2.1893,2.1892,2.1892,2.1887,2.1885,2.1879,2.1876,2.1872,2.1865,2.1863,2.1857,2.1855,2.1852,2.185,2.1846,2.1846,2.1844,2.1837,2.1847,2.1864,2.1865,2.1845,2.1845,2.1845,0,2.1913,2.1909,2.1909,2.1907,2.1899,2.1899,2.1896,2.189,2.1888,2.1884,2.1882,2.1878,2.1875,2.1872,2.1864,2.186,2.1862,2.1855,2.1859,2.1859,2.1858,2.1858,2.1875,2.1858,2.1858,2.1858,2.1858,0,2.1921,2.1922,2.1914,2.1914,2.1915,2.1907,2.1908,2.1904,2.1899,2.1898,2.189,2.1889,2.1879,2.1876,2.187,2.1869,2.1868,2.1865,2.1863,2.1865,2.1865,2.1862,2.1861,2.1859,2.1859,2.1859,2.1859,0,2.1933,2.1927,2.1927,2.1921,2.1919,2.192,2.1914,2.1914,2.1909,2.1908,2.1907,2.1899,2.1896,2.1888,2.1883,2.1879,2.1879,2.1876,2.1882,2.188,2.1884,2.1884,2.1899,2.19,2.1884,2.1884,2.1884,0,2.1938,2.1939,2.1933,2.1933,2.193,2.1929,2.1927,2.192,2.1919,2.1913,2.1914,2.1911,2.1908,2.1903,2.1897,2.1893,2.1889,2.1895,2.1888,2.1891,2.1889,2.1889,2.1889,2.1896,2.1896,2.1896,2.1896,0,2.1949,2.1946,2.1945,2.1943,2.1941,2.1939,2.1936,2.1936,2.1928,2.1927,2.1924,2.1922,2.1918,2.1915,2.191,2.1906,2.19,2.1899,2.1899,2.1901,2.1904,2.1902,2.1885,2.1898,2.1898,2.1898,2.1898,2.1897,2.1957,2.1957,2.1954,2.1953,2.195,2.1948,2.1948,2.1944,2.1942,2.1939,2.1935,2.1933,2.1929,2.1922,2.1919,2.1917,2.1914,2.1915,2.1915,2.1915,2.1916,2.1905,2.1916,2.1916,2.1916,2.1916,2.1916,0,2.1966,2.1964,2.1963,2.196,2.196,2.1956,2.1953,2.1952,2.1951,2.1948,2.1946,2.1944,2.1941,2.1935,2.1932,2.1932,2.1929,2.1931,2.1931,2.193,2.1919,2.1919,2.1934,2.1934,2.1934,2.1934,2.1934,2.1934,2.1971,2.1972,2.197,2.197,2.1967,2.1966,2.1965,2.1963,2.1961,2.1959,2.1958,2.1954,2.195,2.1947,2.1945,2.1943,2.1942,2.1945,2.1942,2.1932,2.193,2.1929,2.1928,2.1945,2.1945,2.1953,2.1953,2.1953]}]]